Location: Forli
(44.2227°N, 12.0407°E)
Time: 00:05:06
(UTC+02:00)

PCSat - Pass Details

Date: 20 April 2026
Orbit: 781 x 790 km, 67.1° (Epoch: 19 May)

Event Time Altitude Azimuth Distance (km) Brightness Sun altitude
Rises 22:01:00 0° 336° (NNW) 3,294 13.9 -19.4°
Reaches altitude 10° 22:04:05 10° 353° (N) 2,362 12.7 -19.9°
Maximum altitude 22:08:00 20° 40° (NE) 1,773 11.4 -20.4°
Enters shadow 22:10:09 16° 69° (ENE) 1,968 11.4 -20.7°
